[[{"header":{"parameterUnit":"m.s-1","parameterCategory":2,"la1":30.2991,"la2":30.254,"lo1":-89.0895,"lo2":-89.0444,"dy":0.0017,"dx":0.0017,"nx":28,"ny":28,"refTime":"2026-02-11T03:00:00:Z","depth":"0","parameterNumber":2,"parameterNumberName":"U-component_of_CURRENTS"},"data":[0,0,0,0,0,0,0,0,0,0,0,0,0,0,0,0,0,0,0,0,0,0,0,0,0,0,0,0,0,0,0,0,0,0,0,0,0,0,0,0,0,0,0,0,0,0,0,0,0,0,0,0,0,0,0,0,0,0,0.2139,0.2139,0,0.2118,0.2117,0.2117,0.209,0.209,0.2089,0.2089,0.2057,0.2057,0.2056,0,0,0,0,0,0,0,0,0,0,0,0,0,0.2169,0.2168,0.2139,0.2139,0.2139,0.2118,0.2117,0.2117,0.209,0.209,0.2089,0.2089,0.2058,0.2057,0.2056,0,0,0,0,0,0,0,0,0,0,0,0,0,0.2151,0.2168,0.2139,0.2124,0.2123,0.2118,0.2117,0.2117,0.209,0.2089,0.2089,0.2089,0.2058,0.2057,0.2056,0.2059,0,0,0.2053,0.2053,0,0,0,0,0,0,0,0,0.2152,0.215,0.2126,0.2125,0.2124,0.2108,0.2116,0.2097,0.209,0.21,0.2089,0.2089,0.2075,0.2072,0.2067,0.2057,0.2056,0.2053,0.2053,0.2052,0.2052,0,0,0,0,0,0,0,0.2153,0.2151,0.2129,0.2126,0.2125,0.2123,0.212,0.2113,0.2089,0.21,0.2098,0.2099,0.2074,0.2068,0.2066,0.2055,0.2053,0.2053,0.2052,0.2052,0.2078,0.2079,0,0,0,0,0,0,0.2159,0.2152,0.2129,0.2128,0.2139,0.2123,0.2119,0.2112,0.2089,0.2085,0.2099,0.2097,0.2069,0.2067,0.2065,0.2091,0.2052,0.2052,0.2051,0.2077,0.2078,0.208,0,0,0,0,0,0,0.216,0.2157,0.213,0.2142,0.2138,0.2123,0.2115,0.2112,0.211,0.2089,0.2085,0.2101,0.2069,0.2066,0.2068,0.2088,0.2051,0.205,0.2075,0.2077,0.2079,0.2128,0,0,0,0,0,0,0.2161,0.2157,0.2156,0.2142,0.2138,0.2134,0.2115,0.2111,0.2111,0.2109,0.209,0.2086,0.2069,0.207,0.2068,0.2087,0.205,0.2074,0.2076,0.2078,0.2124,0.2131,0.2136,0,0,0,0,0,0.2162,0.216,0.2156,0.2154,0.2135,0.2134,0.2132,0.2119,0.2112,0.2115,0.2105,0.2087,0.2083,0.207,0.2067,0.2086,0.2073,0.2075,0.2078,0.2122,0.213,0.2136,0,0,0,0,0,0,0.2172,0.2157,0.2152,0.2145,0.2145,0.2131,0.2131,0.2126,0.212,0.2118,0.2097,0.2093,0.2106,0.2092,0.2078,0.2103,0.2077,0.2079,0.2111,0.2118,0.2124,0.2127,0.2049,0,0,0,0,0,0.2175,0.2168,0.216,0.2157,0.2157,0.2147,0.2145,0.214,0.2133,0.213,0.2117,0.211,0.2115,0.2112,0.2109,0.2119,0.2129,0.2132,0.2138,0.2143,0.2144,0.2194,0.2205,0.2089,0.2089,0.2089,0,0,0.2176,0.2169,0.2165,0.2159,0.2154,0.2158,0.2144,0.2147,0.2152,0.2128,0.213,0.213,0.2123,0.2136,0.2141,0.2125,0.2182,0.2146,0.2151,0.2149,0.2198,0.2209,0.2219,0.2091,0.209,0.209,0,0,0.2179,0.2173,0.2169,0.2172,0.2173,0.2171,0.2176,0.2169,0.2168,0.2175,0.2166,0.218,0.2172,0.2178,0.2179,0.2218,0.2214,0.2218,0.2246,0.2295,0.2304,0.2313,0.2342,0.2353,0.2218,0.2219,0.2219,0,0.2185,0.2176,0.2171,0.2175,0.2178,0.2179,0.2184,0.2189,0.2185,0.2197,0.2182,0.2207,0.2195,0.2228,0.2237,0.2231,0.2252,0.2218,0.2303,0.2312,0.232,0.2348,0.2359,0.2221,0.2221,0.2221,0.222,0,0.2184,0.2183,0.2185,0.2187,0.2194,0.22,0.2208,0.2221,0.2224,0.2232,0.2266,0.2261,0.2279,0.2281,0.2264,0.2321,0.2315,0.2308,0.2284,0.2335,0.236,0.2372,0.2225,0.2224,0.2223,0.2223,0,0,0.2175,0.2182,0.2181,0.2184,0.22,0.2203,0.223,0.2253,0.2278,0.229,0.2324,0.2337,0.2348,0.2351,0.2347,0.2378,0.2447,0.2365,0.2366,0.2393,0.2549,0.2504,0.2511,0.2461,0.2463,0.2465,0.2544,0,0.2175,0.2177,0.2185,0.2196,0.2198,0.222,0.2245,0.2274,0.2299,0.2336,0.2361,0.2388,0.2373,0.2385,0.2421,0.2442,0.2478,0.2425,0.2496,0.2498,0.2452,0.2524,0.2368,0.2423,0.2555,0.2557,0.2558,0,0.2164,0.2169,0.2173,0.2198,0.2202,0.2216,0.2261,0.2285,0.2349,0.2374,0.2425,0.2444,0.2498,0.247,0.2556,0.2526,0.2542,0.2554,0.2557,0.2504,0.2474,0.2394,0.2438,0.2346,0.2575,0.2574,0.2572,0,0.2141,0.2158,0.2159,0.2165,0.2198,0.2213,0.2236,0.2295,0.2332,0.24,0.2447,0.251,0.2553,0.2593,0.2624,0.2599,0.2713,0.2682,0.2659,0.2655,0.253,0.2511,0.249,0.2746,0.2745,0.2745,0.2745,0,0.2125,0.2126,0.2146,0.2145,0.2167,0.2194,0.2235,0.2274,0.2348,0.2407,0.2465,0.2528,0.2589,0.2658,0.2665,0.2708,0.2757,0.268,0.2683,0.2541,0.2524,0.2442,0.2415,0.2748,0.2747,0.2747,0.2746,0,0.2093,0.2103,0.211,0.214,0.2151,0.2164,0.2228,0.2267,0.2343,0.2424,0.2451,0.2569,0.2656,0.271,0.2782,0.2766,0.2706,0.2794,0.2615,0.2595,0.2458,0.244,0.238,0.2304,0.2776,0.2775,0.2775,0,0.2074,0.2072,0.2099,0.2107,0.2118,0.2148,0.2177,0.225,0.2297,0.2446,0.2484,0.2606,0.2673,0.2775,0.2757,0.2775,0.2696,0.2644,0.2559,0.2445,0.2428,0.2353,0.2287,0.2414,0.241,0.2408,0.2405,0,0.2053,0.2062,0.2073,0.2088,0.2106,0.2131,0.2174,0.2208,0.2307,0.2384,0.249,0.2556,0.2657,0.2612,0.2644,0.2629,0.2485,0.2588,0.2518,0.2189,0.2058,0.1986,0.2363,0.2381,0.2383,0.2385,0.2386,0.2387,0.2048,0.2048,0.2065,0.207,0.2088,0.2096,0.2088,0.215,0.2207,0.2274,0.2402,0.2439,0.2449,0.2463,0.2447,0.2295,0.2333,0.2182,0.2186,0.2134,0.2002,0.2324,0.2316,0.2318,0.2319,0.2321,0.2322,0,0.2047,0.2044,0.2048,0.2042,0.2024,0.2049,0.2071,0.2048,0.2066,0.2145,0.2202,0.2178,0.2117,0.2111,0.1997,0.1894,0.1802,0.1829,0.167,0.1639,0.1959,0.1882,0.1718,0.1718,0.1718,0.1718,0.1718,0.1718,0.2054,0.2043,0.2027,0.1975,0.1958,0.1895,0.1879,0.1865,0.1883,0.1855,0.1825,0.185,0.1877,0.1787,0.1634,0.1586,0.1455,0.1373,0.1418,0.1615,0.1647,0.1677,0.1597,0.1376,0.1376,0.0977,0.0974,0.0971]},{"header":{"parameterUnit":"m.s-1","parameterCategory":2,"la1":30.2991,"la2":30.254,"lo1":-89.0895,"lo2":-89.0444,"dy":0.0017,"dx":0.0017,"nx":28,"ny":28,"refTime":"2026-02-11T03:00:00:Z","depth":"0","parameterNumber":3,"parameterNumberName":"V-component_of_CURRENTS"},"data":[0,0,0,0,0,0,0,0,0,0,0,0,0,0,0,0,0,0,0,0,0,0,0,0,0,0,0,0,0,0,0,0,0,0,0,0,0,0,0,0,0,0,0,0,0,0,0,0,0,0,0,0,0,0,0,0,0,0,-0.0013,-0.0013,0,-0.0043,-0.0043,-0.0044,-0.0071,-0.0071,-0.0071,-0.0072,-0.0115,-0.0116,-0.0117,0,0,0,0,0,0,0,0,0,0,0,0,0,-0.001,-0.001,-0.0013,-0.0013,-0.0014,-0.0043,-0.0043,-0.0044,-0.0071,-0.0071,-0.0071,-0.0072,-0.0114,-0.0115,-0.0117,0,0,0,0,0,0,0,0,0,0,0,0,0,-0.0024,-0.0009,-0.0013,-0.003,-0.0031,-0.0043,-0.0043,-0.0044,-0.0071,-0.0071,-0.0072,-0.0072,-0.0114,-0.0115,-0.0117,-0.0119,0,0,-0.0121,-0.0122,0,0,0,0,0,0,0,0,-0.0023,-0.0024,-0.0027,-0.0029,-0.003,-0.0053,-0.0058,-0.0069,-0.0071,-0.0057,-0.0072,-0.0072,-0.0094,-0.0097,-0.0104,-0.0121,-0.0123,-0.0121,-0.0122,-0.0123,-0.0123,0,0,0,0,0,0,0,-0.0022,-0.0023,-0.0026,-0.0027,-0.0029,-0.0046,-0.0048,-0.0061,-0.0074,-0.0058,-0.006,-0.0061,-0.0095,-0.0102,-0.0105,-0.0123,-0.0121,-0.0122,-0.0123,-0.0124,-0.014,-0.0139,0,0,0,0,0,0,-0.0014,-0.0022,-0.0025,-0.0027,-0.0026,-0.0046,-0.0048,-0.0046,-0.0074,-0.0078,-0.0061,-0.0063,-0.01,-0.0103,-0.0106,-0.0096,-0.0123,-0.0124,-0.0125,-0.014,-0.014,-0.0139,0,0,0,0,0,0,-0.0013,-0.0013,-0.0024,-0.0024,-0.0027,-0.0045,-0.0043,-0.0046,-0.0051,-0.0076,-0.0081,-0.0062,-0.01,-0.0104,-0.0113,-0.0098,-0.0125,-0.0126,-0.0141,-0.014,-0.0139,-0.0084,0,0,0,0,0,0,-0.0013,-0.0013,-0.001,-0.0024,-0.0026,-0.0022,-0.0042,-0.0047,-0.0051,-0.0054,-0.0078,-0.0083,-0.0101,-0.011,-0.0114,-0.0101,-0.0127,-0.0141,-0.014,-0.014,-0.0087,-0.0082,-0.0078,0,0,0,0,0,-0.0013,-0.0002,-0.0009,-0.001,-0.0021,-0.0021,-0.0024,-0.004,-0.0051,-0.0047,-0.0066,-0.0082,-0.0108,-0.0111,-0.0116,-0.0102,-0.0142,-0.0141,-0.014,-0.0089,-0.0083,-0.0078,0,0,0,0,0,0,0.0001,-0.0004,-0.0012,-0.0004,-0.0009,-0.0025,-0.0024,-0.0035,-0.0047,-0.0052,-0.0077,-0.0082,-0.0085,-0.0102,-0.0105,-0.0105,-0.0127,-0.0127,-0.0087,-0.0082,-0.0077,-0.0062,-0.0128,0,0,0,0,0,0.0006,0.0012,0.0004,0.001,0.0009,-0.0008,-0.0011,-0.002,-0.0033,-0.0039,-0.0056,-0.0074,-0.0085,-0.0089,-0.0105,-0.0103,-0.012,-0.0098,-0.0093,-0.0089,-0.008,-0.0095,-0.0091,-0.0136,-0.0136,-0.0136,0,0,0.0012,0.0011,0.0013,0.0013,0.0005,0.0016,-0.001,-0.001,-0.0002,-0.0041,-0.0037,-0.006,-0.0082,-0.0082,-0.0084,-0.0093,-0.0085,-0.0088,-0.0084,-0.0077,-0.0093,-0.0089,-0.0085,-0.0135,-0.0135,-0.0136,0,0,0.0034,0.0027,0.0042,0.0043,0.0039,0.0032,0.0035,0.0023,0.0017,0.0016,-0.0009,-0.0021,-0.004,-0.0049,-0.0057,-0.0036,-0.0064,-0.0044,-0.0004,-0.0019,-0.0015,-0.0012,-0.0027,-0.0025,-0.0038,-0.0038,-0.0038,0,0.0041,0.006,0.0046,0.0062,0.0069,0.0044,0.0064,0.0058,0.0044,0.0047,0.0025,0.0002,-0.0021,-0.0013,-0.0009,-0.0024,-0.004,-0.0022,-0.0012,-0.0009,-0.0007,-0.0023,-0.0022,-0.0035,-0.0035,-0.0036,-0.0036,0,0.0077,0.009,0.01,0.0114,0.0119,0.0131,0.0124,0.0124,0.0109,0.0103,0.0101,0.0066,0.0054,0.0044,0.0022,0.0032,0.0013,-0.0007,-0.0023,0.0001,-0.0018,-0.0018,-0.0031,-0.0032,-0.0033,-0.0034,0,0,0.0098,0.0122,0.0125,0.0143,0.0148,0.0159,0.0172,0.0183,0.0201,0.0174,0.0193,0.0162,0.0139,0.0128,0.0098,0.0084,0.0081,0.0049,0.0047,0.004,0.0049,0.004,0.0038,0.0061,0.0061,0.0061,0.003,0,0.0131,0.0176,0.0177,0.0219,0.0242,0.0229,0.025,0.0254,0.0248,0.0258,0.0222,0.0222,0.0173,0.0166,0.0146,0.01,0.0083,0.0091,0.0022,0.002,0.0013,0.0039,0.0067,0.0042,0.0029,0.0029,0.0029,0,0.0168,0.0195,0.0243,0.0279,0.0289,0.0308,0.0337,0.0354,0.0358,0.0353,0.034,0.0307,0.0286,0.0234,0.0173,0.018,0.012,0.0078,0.0075,0.0049,0.0011,0.0015,0.0042,-0.0035,0.0028,0.0028,0.0028,0,0.0198,0.0242,0.0283,0.0295,0.033,0.0348,0.0367,0.0383,0.0413,0.0413,0.0431,0.0387,0.0376,0.0298,0.0203,0.0187,0.0133,0.0097,0.0033,0.0031,0.0035,0.0033,-0.0014,0.0051,0.0051,0.0051,0.0051,0,0.0236,0.0269,0.03,0.0324,0.038,0.0388,0.0447,0.0456,0.0487,0.0544,0.0485,0.0514,0.039,0.034,0.0237,0.0145,0.0156,0.005,0.0028,0.0054,0.0054,-0.003,-0.009,0.005,0.005,0.005,0.005,0,0.0264,0.0282,0.0336,0.038,0.0396,0.0438,0.0504,0.0552,0.0569,0.0638,0.0641,0.0612,0.0552,0.0425,0.0305,0.0203,0.0056,0.0061,0.01,0.0083,-0.0053,-0.0111,-0.0193,-0.0232,-0.0012,-0.0012,-0.0012,0,0.0283,0.0313,0.0378,0.0418,0.0439,0.0501,0.0551,0.0588,0.0647,0.0711,0.0754,0.0712,0.071,0.053,0.034,0.0165,0.0062,0.0058,0.0028,-0.0046,-0.0126,-0.0166,-0.0197,0.0051,0.0052,0.0052,0.0052,0,0.0324,0.0345,0.0392,0.0472,0.053,0.0604,0.0677,0.0735,0.0797,0.0863,0.0939,0.0941,0.0782,0.062,0.0367,0.0243,0.001,0.0057,-0.0026,-0.0081,-0.0121,-0.0173,0.0052,0.0054,0.0054,0.0054,0.0053,0.0053,0.0356,0.0396,0.0458,0.0535,0.0605,0.0697,0.0764,0.0858,0.0965,0.1072,0.1073,0.1104,0.0865,0.0535,0.0357,0.0046,0.0021,-0.0053,-0.0117,-0.015,-0.0186,0.0044,0.0023,0.0023,0.0022,0.0022,0.0022,0,0.0397,0.0444,0.0518,0.0609,0.069,0.0719,0.0844,0.0923,0.106,0.116,0.123,0.1128,0.0856,0.0548,0.0126,-0.0087,-0.0164,-0.0206,-0.0252,-0.0276,-0.0069,-0.0062,-0.0094,-0.0094,-0.0093,-0.0093,-0.0093,-0.0093,0.0418,0.0492,0.0529,0.066,0.0726,0.0833,0.0904,0.1031,0.1125,0.1238,0.1253,0.124,0.0994,0.0317,-0.0136,-0.0241,-0.0395,-0.043,-0.052,-0.0373,-0.0363,-0.0354,-0.036,-0.0453,-0.0454,-0.0676,-0.0678,-0.068]}],[{"header":{"parameterUnit":"m.s-1","parameterCategory":2,"la1":30.2991,"la2":30.254,"lo1":-89.0895,"lo2":-89.0444,"dy":0.0017,"dx":0.0017,"nx":28,"ny":28,"refTime":"2026-02-11T03:00:00:Z","depth":"2","parameterNumber":2,"parameterNumberName":"U-component_of_CURRENTS"},"data":[0,0,0,0,0,0,0,0,0,0,0,0,0,0,0,0,0,0,0,0,0,0,0,0,0,0,0,0,0,0,0,0,0,0,0,0,0,0,0,0,0,0,0,0,0,0,0,0,0,0,0,0,0,0,0,0,0,0,0.1909,0.1909,0,0.1904,0.1903,0.1903,0.189,0.189,0.1889,0.1889,0.1877,0.1876,0.1876,0,0,0,0,0,0,0,0,0,0,0,0,0,0.1913,0.1913,0.1909,0.1909,0.1909,0.1904,0.1903,0.1903,0.189,0.189,0.1889,0.1889,0.1877,0.1876,0.1876,0,0,0,0,0,0,0,0,0,0,0,0,0,0.1908,0.1913,0.1909,0.1903,0.1903,0.1904,0.1903,0.1903,0.189,0.189,0.1889,0.1889,0.1877,0.1876,0.1876,0.1878,0,0,0.1875,0.1875,0,0,0,0,0,0,0,0,0.1909,0.1908,0.1904,0.1903,0.1903,0.1899,0.19,0.1895,0.189,0.1893,0.1889,0.1889,0.1885,0.1884,0.1881,0.1877,0.1876,0.1875,0.1875,0.1875,0.1875,0,0,0,0,0,0,0,0.1909,0.1908,0.1905,0.1904,0.1903,0.1903,0.1902,0.1899,0.1888,0.1892,0.1892,0.1894,0.1884,0.1881,0.188,0.1876,0.1875,0.1875,0.1874,0.1874,0.1913,0.1915,0,0,0,0,0,0,0.1913,0.1908,0.1905,0.1905,0.1907,0.1903,0.1902,0.1899,0.1888,0.1887,0.1894,0.1894,0.1882,0.1881,0.188,0.1913,0.1875,0.1874,0.1874,0.1912,0.1914,0.1915,0,0,0,0,0,0,0.1913,0.1913,0.1905,0.1908,0.1908,0.1903,0.19,0.1899,0.1904,0.189,0.1888,0.1902,0.1881,0.188,0.189,0.1911,0.1874,0.1874,0.1911,0.1913,0.1914,0.1959,0,0,0,0,0,0,0.1913,0.1912,0.1916,0.1908,0.1908,0.1914,0.19,0.1899,0.1906,0.1905,0.1896,0.1894,0.1881,0.1891,0.189,0.191,0.1874,0.1909,0.1912,0.1914,0.1956,0.1963,0.1968,0,0,0,0,0,0.1913,0.1916,0.1916,0.1916,0.1911,0.1915,0.1914,0.1909,0.1907,0.1913,0.191,0.1895,0.1905,0.1891,0.189,0.1911,0.1908,0.1911,0.1914,0.1954,0.1961,0.1968,0,0,0,0,0,0,0.192,0.1915,0.1914,0.1916,0.1921,0.1913,0.1919,0.1918,0.192,0.1922,0.1907,0.1905,0.1924,0.1913,0.1899,0.1931,0.1906,0.1909,0.1937,0.1944,0.195,0.1951,0.1873,0,0,0,0,0,0.1924,0.1925,0.1924,0.1927,0.193,0.1928,0.1931,0.193,0.193,0.1931,0.1925,0.1926,0.1933,0.1935,0.1936,0.195,0.1956,0.1965,0.1971,0.1976,0.1977,0.2017,0.2026,0.1924,0.1924,0.1924,0,0,0.1927,0.1927,0.1926,0.1929,0.1931,0.1938,0.1929,0.1938,0.1948,0.193,0.1942,0.1945,0.1943,0.196,0.1968,0.1954,0.2008,0.1979,0.1983,0.1982,0.202,0.203,0.2039,0.1926,0.1926,0.1925,0,0,0.1934,0.1935,0.1938,0.1944,0.1953,0.1954,0.1961,0.1963,0.1967,0.1982,0.1977,0.1995,0.1997,0.2003,0.2005,0.2045,0.2039,0.2049,0.2076,0.2114,0.2123,0.213,0.2151,0.216,0.2049,0.2049,0.205,0,0.1941,0.194,0.1942,0.195,0.1958,0.1963,0.1973,0.1981,0.1988,0.2002,0.1993,0.2025,0.2018,0.205,0.2061,0.2058,0.2074,0.2048,0.2122,0.2129,0.2136,0.2156,0.2165,0.2052,0.2052,0.2051,0.2051,0,0.1946,0.1952,0.1958,0.1968,0.1979,0.199,0.2002,0.2019,0.2029,0.204,0.2077,0.2077,0.2098,0.2102,0.2089,0.214,0.2134,0.2126,0.2103,0.2149,0.2167,0.2176,0.2056,0.2055,0.2054,0.2053,0,0,0.1941,0.1957,0.1959,0.1965,0.1989,0.1995,0.2026,0.2053,0.2078,0.2097,0.2132,0.2151,0.2163,0.2167,0.2165,0.219,0.2248,0.2179,0.218,0.2197,0.2329,0.2275,0.2279,0.2259,0.2261,0.2263,0.2321,0,0.1945,0.1956,0.1968,0.1986,0.1993,0.2018,0.2044,0.2076,0.2105,0.2141,0.2166,0.2195,0.2185,0.2199,0.2229,0.2245,0.2274,0.2232,0.2283,0.2284,0.2229,0.2289,0.2076,0.2107,0.233,0.2331,0.2332,0,0.194,0.195,0.1964,0.1991,0.1998,0.2015,0.2064,0.209,0.2152,0.2179,0.2229,0.2246,0.2294,0.2272,0.2341,0.2318,0.2328,0.2336,0.2338,0.2277,0.2247,0.2097,0.2114,0.2347,0.2346,0.2345,0.2344,0,0.1919,0.1944,0.1953,0.1962,0.1997,0.2017,0.2043,0.2104,0.2139,0.2207,0.2248,0.2304,0.2342,0.2374,0.2396,0.2377,0.2464,0.2439,0.2402,0.2397,0.2219,0.2196,0.2489,0.2489,0.2489,0.2489,0.2489,0,0.1907,0.1914,0.1942,0.1946,0.197,0.2003,0.2046,0.2087,0.2158,0.2208,0.2266,0.2315,0.2373,0.2425,0.2428,0.245,0.2499,0.2418,0.2417,0.2228,0.2207,0.2412,0.2403,0.2491,0.249,0.249,0.249,0,0.1878,0.1894,0.1907,0.1944,0.1957,0.1976,0.2042,0.2077,0.2151,0.2222,0.2247,0.2348,0.2414,0.2459,0.2515,0.2494,0.251,0.2501,0.227,0.224,0.2406,0.2398,0.2466,0.2465,0.2464,0.2463,0.2462,0,0.1861,0.1864,0.1899,0.1909,0.1925,0.1961,0.199,0.2064,0.2106,0.2233,0.2261,0.2361,0.2405,0.2477,0.2451,0.2454,0.2508,0.2261,0.2181,0.2416,0.2408,0.2402,0.2395,0.1962,0.1957,0.1954,0.195,0,0.1838,0.1853,0.1866,0.1886,0.1908,0.1932,0.1977,0.2005,0.2097,0.2151,0.2223,0.2268,0.2346,0.2253,0.2274,0.2246,0.2241,0.2182,0.2501,0.2004,0.1947,0.1937,0.1946,0.1916,0.1919,0.1922,0.1923,0.1925,0.1827,0.1828,0.1848,0.1857,0.188,0.1883,0.1873,0.1921,0.1956,0.2,0.2107,0.2099,0.2118,0.2037,0.197,0.1916,0.2075,0.1963,0.1973,0.1987,0.1921,0.1866,0.1806,0.1809,0.1811,0.1813,0.1815,0,0.1808,0.1809,0.1817,0.1811,0.1797,0.1833,0.1846,0.1808,0.1794,0.1858,0.1883,0.1729,0.1664,0.1688,0.1542,0.1537,0.1501,0.1475,0.1397,0.1434,0.1466,0.1371,0.1111,0.1109,0.1107,0.1105,0,0,0.18,0.1787,0.1776,0.1725,0.1719,0.1661,0.1644,0.1599,0.16,0.1551,0.1521,0.1627,0.1658,0.1376,0.1325,0.1192,0.1309,0.1146,0.1713,0.166,0.169,0.1752,0.1648,0,0,0,0,0]},{"header":{"parameterUnit":"m.s-1","parameterCategory":2,"la1":30.2991,"la2":30.254,"lo1":-89.0895,"lo2":-89.0444,"dy":0.0017,"dx":0.0017,"nx":28,"ny":28,"refTime":"2026-02-11T03:00:00:Z","depth":"2","parameterNumber":3,"parameterNumberName":"V-component_of_CURRENTS"},"data":[0,0,0,0,0,0,0,0,0,0,0,0,0,0,0,0,0,0,0,0,0,0,0,0,0,0,0,0,0,0,0,0,0,0,0,0,0,0,0,0,0,0,0,0,0,0,0,0,0,0,0,0,0,0,0,0,0,0,0.0173,0.0172,0,0.0144,0.0143,0.0143,0.0124,0.0123,0.0123,0.0123,0.0091,0.009,0.0089,0,0,0,0,0,0,0,0,0,0,0,0,0,0.0183,0.0183,0.0173,0.0172,0.0172,0.0144,0.0143,0.0143,0.0124,0.0123,0.0123,0.0123,0.0091,0.009,0.0089,0,0,0,0,0,0,0,0,0,0,0,0,0,0.0168,0.0183,0.0173,0.0159,0.0158,0.0144,0.0143,0.0143,0.0124,0.0123,0.0123,0.0123,0.0091,0.009,0.0089,0.0085,0,0,0.0086,0.0085,0,0,0,0,0,0,0,0,0.0169,0.0168,0.0162,0.016,0.0158,0.0137,0.0135,0.0124,0.0124,0.0136,0.0123,0.0123,0.0106,0.0104,0.0099,0.0084,0.0083,0.0086,0.0085,0.0084,0.0084,0,0,0,0,0,0,0,0.017,0.0169,0.0161,0.0161,0.0159,0.0145,0.0143,0.0133,0.0122,0.0135,0.0134,0.0131,0.0105,0.01,0.0098,0.0082,0.0086,0.0085,0.0084,0.0083,0.0065,0.0065,0,0,0,0,0,0,0.0176,0.017,0.0162,0.016,0.0164,0.0145,0.0143,0.0144,0.0122,0.0119,0.0131,0.013,0.0102,0.0099,0.0096,0.0101,0.0084,0.0083,0.0083,0.0064,0.0065,0.0065,0,0,0,0,0,0,0.0177,0.0176,0.0163,0.0164,0.0162,0.0145,0.0147,0.0144,0.0139,0.012,0.0116,0.013,0.0102,0.0098,0.0091,0.0099,0.0083,0.0082,0.0064,0.0064,0.0065,0.0104,0,0,0,0,0,0,0.0177,0.0176,0.0179,0.0165,0.0162,0.0161,0.0147,0.0143,0.0137,0.0136,0.0117,0.0114,0.0101,0.0093,0.009,0.0097,0.0081,0.0064,0.0064,0.0065,0.0102,0.0105,0.0108,0,0,0,0,0,0.0178,0.0185,0.0179,0.0178,0.0166,0.0161,0.0159,0.0146,0.0138,0.014,0.0126,0.0115,0.0093,0.0092,0.0089,0.0096,0.0064,0.0064,0.0065,0.0101,0.0105,0.0108,0,0,0,0,0,0,0.0189,0.0183,0.0176,0.0181,0.0173,0.0158,0.0158,0.0148,0.0139,0.0136,0.0117,0.0113,0.0109,0.0096,0.0096,0.0091,0.0076,0.0076,0.0105,0.0108,0.0111,0.0125,0.008,0,0,0,0,0,0.0193,0.0197,0.0187,0.019,0.0188,0.0173,0.0168,0.016,0.0149,0.0145,0.0131,0.0117,0.0108,0.0104,0.0091,0.009,0.0075,0.0092,0.0095,0.0097,0.0105,0.0089,0.0091,0.0066,0.0066,0.0066,0,0,0.0197,0.0194,0.0196,0.0192,0.0184,0.019,0.017,0.0167,0.0172,0.0143,0.0145,0.0126,0.0109,0.0106,0.0104,0.0098,0.0096,0.0098,0.01,0.0107,0.0089,0.0092,0.0094,0.0066,0.0066,0.0066,0,0,0.0212,0.0206,0.0216,0.0215,0.0208,0.0201,0.0203,0.019,0.0185,0.0182,0.0163,0.0151,0.0136,0.0127,0.0121,0.0132,0.011,0.0125,0.0154,0.0138,0.014,0.0142,0.0123,0.0123,0.0129,0.0129,0.0129,0,0.0216,0.023,0.0217,0.0229,0.0232,0.021,0.0224,0.0217,0.0204,0.0206,0.0188,0.0167,0.0148,0.0152,0.0152,0.014,0.0125,0.0144,0.0142,0.0144,0.0145,0.0126,0.0125,0.0131,0.0131,0.0131,0.0131,0,0.0242,0.0252,0.0258,0.0268,0.0269,0.0276,0.0268,0.0266,0.0254,0.0248,0.0243,0.0213,0.0203,0.0191,0.0174,0.0176,0.0161,0.0146,0.0136,0.015,0.0128,0.0127,0.0134,0.0133,0.0133,0.0132,0,0,0.0256,0.0274,0.0276,0.0292,0.0291,0.0299,0.0306,0.0313,0.0329,0.0302,0.0316,0.0285,0.0266,0.0257,0.0231,0.0214,0.0201,0.0186,0.0184,0.0173,0.0163,0.0148,0.0144,0.0186,0.0186,0.0186,0.0144,0,0.028,0.0316,0.0315,0.0348,0.0367,0.0355,0.037,0.0371,0.0365,0.0372,0.0337,0.0336,0.0293,0.0287,0.0264,0.0221,0.0199,0.0213,0.0148,0.0146,0.0135,0.0143,0.0161,0.0126,0.0143,0.0142,0.0142,0,0.0308,0.033,0.0368,0.0401,0.0408,0.0422,0.0446,0.0459,0.0459,0.0454,0.0439,0.0409,0.0383,0.034,0.0274,0.0284,0.0228,0.0187,0.0185,0.0158,0.0128,0.0114,0.0122,0.0139,0.014,0.014,0.014,0,0.0334,0.0369,0.0403,0.0413,0.0442,0.0457,0.0473,0.0484,0.0511,0.0506,0.052,0.0475,0.0462,0.0386,0.0294,0.0284,0.0218,0.0193,0.0125,0.0123,0.012,0.0118,0.0142,0.0143,0.0143,0.0143,0.0143,0,0.0365,0.0393,0.042,0.0441,0.0489,0.0494,0.0547,0.0553,0.0578,0.0624,0.0567,0.0584,0.0473,0.0417,0.032,0.0223,0.0235,0.0135,0.0114,0.0133,0.0133,0.013,0.0129,0.0141,0.0142,0.0142,0.0142,0,0.039,0.0404,0.0452,0.049,0.0504,0.0542,0.06,0.0644,0.0654,0.071,0.071,0.0671,0.0601,0.0481,0.0363,0.0269,0.0168,0.0126,0.0155,0.0138,0.0075,0.0077,0.005,0.0049,0.0048,0.0048,0.0047,0,0.0407,0.0433,0.049,0.0525,0.0544,0.06,0.0647,0.0679,0.0731,0.077,0.0803,0.0747,0.0724,0.0541,0.0367,0.0198,0.017,0.0095,0.0076,0.0085,0.0067,0.007,0.0072,0.0084,0.0083,0.0083,0.0083,0,0.0443,0.0462,0.0503,0.0575,0.0628,0.0697,0.0763,0.0815,0.0865,0.0906,0.0948,0.0927,0.0762,0.0594,0.0358,0.0243,0.0122,0.0087,0.0095,0.0105,0.0113,0.0097,0.0099,0.0082,0.0082,0.0082,0.0082,0.0082,0.0473,0.0509,0.0563,0.0632,0.0697,0.0782,0.0844,0.092,0.1003,0.1064,0.1049,0.1015,0.083,0.0527,0.033,0.0116,0.0126,0.0042,0.0044,0.0045,0.0057,0.0064,0.0026,0.0026,0.0025,0.0025,0.0025,0,0.0513,0.0553,0.0618,0.07,0.0773,0.0802,0.0915,0.0976,0.1073,0.1116,0.1141,0.0958,0.0775,0.0553,0.0242,0.0061,0.0051,-0.0003,0.0024,0.0027,0.0029,0.0041,0.0004,0.0003,0.0003,0.0002,0,0,0.0535,0.0599,0.063,0.0745,0.0804,0.0902,0.0967,0.1054,0.1105,0.114,0.1116,0.1082,0.0824,0.0593,0.0353,0.0173,0.0139,0.0138,0.0175,0.0239,0.0243,0.0077,0.0101,0,0,0,0,0]}],[{"header":{"parameterUnit":"m.s-1","parameterCategory":2,"la1":30.2991,"la2":30.254,"lo1":-89.0895,"lo2":-89.0444,"dy":0.0017,"dx":0.0017,"nx":28,"ny":28,"refTime":"2026-02-11T03:00:00:Z","depth":"4","parameterNumber":2,"parameterNumberName":"U-component_of_CURRENTS"},"data":[0,0,0,0,0,0,0,0,0,0,0,0,0,0,0,0,0,0,0,0,0,0,0,0,0,0,0,0,0,0,0,0,0,0,0,0,0,0,0,0,0,0,0,0,0,0,0,0,0,0,0,0,0,0,0,0,0,0,0.1228,0.1229,0,0.1262,0.1262,0.1263,0.1292,0.1293,0.1293,0.1294,0.1332,0.1333,0.1333,0,0,0,0,0,0,0,0,0,0,0,0,0,0.1184,0.1184,0.1228,0.1229,0.1229,0.1262,0.1262,0.1263,0.1292,0.1293,0.1293,0.1294,0.1332,0.1333,0.1333,0,0,0,0,0,0,0,0,0,0,0,0,0,0.1207,0.1185,0.1228,0.1249,0.1252,0.1262,0.1262,0.1263,0.1292,0.1293,0.1293,0.1294,0.1332,0.1333,0.1334,0.1324,0,0,0.1336,0.1336,0,0,0,0,0,0,0,0,0.1206,0.1209,0.1246,0.1248,0.1251,0.1275,0.1261,0.1284,0.1292,0.1275,0.1294,0.1295,0.1314,0.1317,0.1319,0.1325,0.1327,0.1336,0.1337,0.1337,0.1337,0,0,0,0,0,0,0,0.1204,0.1207,0.124,0.1246,0.1249,0.1255,0.1259,0.1265,0.1289,0.1276,0.1279,0.1285,0.1315,0.1318,0.132,0.1328,0.1336,0.1337,0.1337,0.1338,0.141,0.1411,0,0,0,0,0,0,0.1203,0.1206,0.1239,0.1241,0.1232,0.1256,0.126,0.1265,0.1289,0.1293,0.1285,0.1287,0.1316,0.1319,0.1321,0.1383,0.1337,0.1338,0.1338,0.1409,0.141,0.1412,0,0,0,0,0,0,0.1202,0.1206,0.1238,0.1226,0.123,0.1256,0.1261,0.1265,0.1295,0.1295,0.13,0.1314,0.1317,0.132,0.1354,0.1382,0.1338,0.1339,0.1407,0.1409,0.1411,0.1461,0,0,0,0,0,0,0.12,0.1205,0.1222,0.1226,0.1231,0.1261,0.1261,0.1266,0.1297,0.1301,0.1321,0.1324,0.1318,0.1353,0.1354,0.1383,0.134,0.1405,0.1408,0.141,0.1457,0.1464,0.147,0,0,0,0,0,0.1199,0.1213,0.1222,0.1227,0.1249,0.1262,0.1266,0.1285,0.1298,0.1314,0.1333,0.1324,0.1371,0.1354,0.1356,0.1385,0.1404,0.1407,0.141,0.1454,0.1463,0.147,0,0,0,0,0,0,0.1204,0.1218,0.1228,0.1247,0.1263,0.1268,0.129,0.1301,0.1327,0.1341,0.1339,0.1344,0.1384,0.1379,0.1361,0.1415,0.1387,0.1391,0.142,0.1428,0.1435,0.1433,0.134,0,0,0,0,0,0.1212,0.1229,0.124,0.126,0.127,0.1286,0.13,0.1313,0.133,0.1344,0.1359,0.1377,0.1394,0.1408,0.1419,0.1446,0.1446,0.1468,0.1475,0.148,0.1482,0.1512,0.1521,0.1422,0.1422,0.1422,0,0,0.1221,0.1232,0.1243,0.1263,0.1279,0.1296,0.1297,0.1327,0.1348,0.1343,0.1388,0.1402,0.1407,0.144,0.1458,0.1443,0.1509,0.1484,0.1489,0.1487,0.1516,0.1525,0.1534,0.1425,0.1424,0.1424,0,0,0.1236,0.1257,0.1273,0.1289,0.1318,0.1325,0.134,0.1362,0.1384,0.1421,0.1427,0.1459,0.1485,0.1494,0.1501,0.155,0.1543,0.1561,0.1592,0.1622,0.163,0.1637,0.165,0.1658,0.1563,0.1563,0.1563,0,0.125,0.1267,0.1282,0.13,0.1319,0.1341,0.1362,0.1383,0.1417,0.144,0.1446,0.1503,0.1508,0.1545,0.1564,0.1565,0.1577,0.156,0.163,0.1637,0.1643,0.1655,0.1663,0.1566,0.1566,0.1565,0.1565,0,0.1265,0.1291,0.1304,0.1333,0.1356,0.138,0.1405,0.144,0.1472,0.1491,0.1549,0.1563,0.1597,0.1607,0.16,0.1652,0.1644,0.1635,0.1607,0.1656,0.1666,0.1673,0.157,0.1569,0.1568,0.1567,0,0,0.1261,0.1306,0.1314,0.1333,0.1377,0.1391,0.1439,0.148,0.1517,0.156,0.1607,0.1644,0.1664,0.1672,0.1677,0.1699,0.1753,0.1691,0.1692,0.17,0.1817,0.1693,0.1689,0.1762,0.1764,0.1765,0.1806,0,0.1271,0.1306,0.133,0.1372,0.139,0.1431,0.1468,0.1513,0.1558,0.1608,0.1642,0.1687,0.1685,0.171,0.1737,0.1751,0.1776,0.1743,0.1772,0.1772,0.1653,0.1695,0.177,0.1811,0.1813,0.1814,0.1815,0,0.1272,0.1297,0.1337,0.1388,0.1402,0.1435,0.1505,0.1543,0.1615,0.1653,0.1713,0.1738,0.179,0.1775,0.1834,0.1818,0.1826,0.1828,0.183,0.17,0.1662,0.1753,0.1828,0.1827,0.1826,0.1825,0.1824,0,0.1244,0.1299,0.1333,0.1351,0.1412,0.145,0.1492,0.1565,0.1607,0.1692,0.1732,0.1795,0.1837,0.1864,0.1881,0.1869,0.193,0.1911,0.1806,0.1798,0.1874,0.1866,0.195,0.195,0.195,0.195,0.195,0,0.1227,0.1257,0.1328,0.1345,0.1394,0.1445,0.1509,0.1562,0.1642,0.1688,0.1759,0.1797,0.1865,0.1904,0.1906,0.1877,0.1957,0.1814,0.1801,0.1895,0.1888,0.188,0.1871,0.1951,0.1951,0.1951,0.1951,0,0.1186,0.1233,0.1276,0.1353,0.1382,0.1421,0.1515,0.1553,0.1641,0.1704,0.1735,0.1825,0.1867,0.1911,0.1953,0.1897,0.1886,0.1857,0.1956,0.1948,0.1727,0.172,0.1736,0.1732,0.1728,0.1725,0.1723,0,0.1163,0.1183,0.1275,0.1304,0.1345,0.1412,0.1453,0.1546,0.1585,0.17,0.1716,0.1799,0.1841,0.1802,0.1859,0.1853,0.183,0.181,0.1758,0.1719,0.1706,0.1705,0.1703,0.1718,0.1717,0.1716,0.1715,0,0.1121,0.117,0.1206,0.1267,0.1319,0.136,0.1427,0.1442,0.154,0.1635,0.1648,0.166,0.1704,0.1723,0.1734,0.1727,0.1811,0.1774,0.178,0.1732,0.1698,0.1688,0.169,0.1703,0.1705,0.1706,0.1707,0,0.1098,0.1114,0.1172,0.1213,0.1273,0.1282,0.1326,0.1356,0.14,0.1517,0.1521,0.1601,0.1688,0.1659,0.167,0.1652,0.1619,0.1553,0.157,0.1584,0.1513,0.1447,0.1366,0,0,0,0,0,0.1066,0.1072,0.1108,0.1138,0.1191,0.1223,0.1293,0.1335,0.1427,0.1395,0.1449,0.1475,0.1481,0.1529,0.1477,0.1607,0.1632,0.154,0.1567,0.1638,0.1652,0.1582,0,0,0,0,0,0,0.1042,0.1078,0.1082,0.1066,0.1071,0.1111,0.1151,0.1212,0.1195,0.1296,0.1309,0.1383,0.1418,0.1495,0.145,0.1463,0.1446,0.1595,0.1591,0.1631,0.1643,0.1654,0.1587,0,0,0,0,0]},{"header":{"parameterUnit":"m.s-1","parameterCategory":2,"la1":30.2991,"la2":30.254,"lo1":-89.0895,"lo2":-89.0444,"dy":0.0017,"dx":0.0017,"nx":28,"ny":28,"refTime":"2026-02-11T03:00:00:Z","depth":"4","parameterNumber":3,"parameterNumberName":"V-component_of_CURRENTS"},"data":[0,0,0,0,0,0,0,0,0,0,0,0,0,0,0,0,0,0,0,0,0,0,0,0,0,0,0,0,0,0,0,0,0,0,0,0,0,0,0,0,0,0,0,0,0,0,0,0,0,0,0,0,0,0,0,0,0,0,0.0171,0.0171,0,0.0154,0.0154,0.0154,0.015,0.015,0.015,0.015,0.0135,0.0135,0.0134,0,0,0,0,0,0,0,0,0,0,0,0,0,0.0175,0.0176,0.0171,0.0171,0.017,0.0155,0.0154,0.0154,0.015,0.015,0.015,0.015,0.0135,0.0135,0.0134,0,0,0,0,0,0,0,0,0,0,0,0,0,0.0168,0.0176,0.0171,0.0166,0.0166,0.0155,0.0154,0.0154,0.015,0.015,0.015,0.015,0.0135,0.0135,0.0134,0.0126,0,0,0.0132,0.0131,0,0,0,0,0,0,0,0,0.0168,0.0168,0.0167,0.0167,0.0166,0.0154,0.015,0.0145,0.015,0.0156,0.015,0.015,0.0142,0.014,0.0137,0.0126,0.0125,0.0132,0.0131,0.0131,0.0131,0,0,0,0,0,0,0,0.0169,0.0168,0.0164,0.0167,0.0166,0.0157,0.0157,0.0149,0.0148,0.0155,0.0155,0.0153,0.0141,0.0138,0.0136,0.0125,0.0132,0.0131,0.0131,0.013,0.0113,0.0113,0,0,0,0,0,0,0.0172,0.0169,0.0165,0.0164,0.0168,0.0157,0.0156,0.0158,0.0148,0.0147,0.0153,0.0153,0.0139,0.0137,0.0136,0.0139,0.0131,0.013,0.013,0.0113,0.0113,0.0113,0,0,0,0,0,0,0.0172,0.0172,0.0165,0.0166,0.0164,0.0157,0.0159,0.0158,0.0158,0.0146,0.0145,0.0155,0.0139,0.0137,0.0134,0.0138,0.013,0.0129,0.0113,0.0113,0.0113,0.0137,0,0,0,0,0,0,0.0172,0.0172,0.0175,0.0166,0.0164,0.0164,0.0159,0.0157,0.0156,0.0156,0.0148,0.0146,0.0139,0.0135,0.0133,0.0137,0.0129,0.0113,0.0113,0.0113,0.0136,0.0137,0.0139,0,0,0,0,0,0.0173,0.0177,0.0176,0.0175,0.0169,0.0164,0.0163,0.0158,0.0156,0.0158,0.0152,0.0147,0.0134,0.0135,0.0133,0.0136,0.0113,0.0113,0.0113,0.0135,0.0137,0.0139,0,0,0,0,0,0,0.018,0.0177,0.0175,0.0178,0.0174,0.0164,0.0165,0.016,0.0157,0.0158,0.0147,0.0146,0.0144,0.0135,0.0137,0.0129,0.0122,0.0121,0.0139,0.0141,0.0142,0.0153,0.0128,0,0,0,0,0,0.0183,0.0187,0.018,0.0183,0.0182,0.0174,0.0172,0.0168,0.0163,0.0162,0.0155,0.0147,0.014,0.0138,0.013,0.0127,0.0116,0.0127,0.0128,0.013,0.0136,0.0119,0.012,0.0112,0.0112,0.0112,0,0,0.0186,0.0185,0.0187,0.0185,0.0181,0.0185,0.0173,0.0172,0.0177,0.016,0.0164,0.0153,0.014,0.0138,0.0136,0.0133,0.0124,0.013,0.0131,0.0137,0.0119,0.012,0.012,0.0112,0.0112,0.0112,0,0,0.0195,0.0194,0.0201,0.02,0.0197,0.0193,0.0195,0.0187,0.0186,0.0185,0.0175,0.0166,0.0157,0.0149,0.0143,0.0147,0.0132,0.0143,0.016,0.0144,0.0144,0.0145,0.0127,0.0126,0.0144,0.0145,0.0145,0,0.0199,0.0209,0.0201,0.0209,0.0212,0.02,0.0209,0.0205,0.0198,0.02,0.0191,0.0176,0.0163,0.0161,0.0161,0.0151,0.0139,0.0156,0.0146,0.0146,0.0147,0.0128,0.0126,0.0146,0.0146,0.0145,0.0145,0,0.0213,0.0223,0.0227,0.0235,0.0235,0.0241,0.0235,0.0237,0.0232,0.0228,0.0224,0.0202,0.0197,0.0185,0.0174,0.0169,0.0159,0.015,0.0144,0.0149,0.0129,0.0126,0.0147,0.0147,0.0147,0.0146,0,0,0.022,0.0236,0.0238,0.0252,0.0252,0.0257,0.0262,0.0267,0.0281,0.0262,0.0272,0.0248,0.0236,0.0229,0.0209,0.0191,0.0174,0.0173,0.0171,0.0159,0.0137,0.0122,0.0118,0.0163,0.0163,0.0163,0.0121,0,0.0236,0.0262,0.0261,0.0287,0.0301,0.0295,0.0306,0.0308,0.0305,0.0311,0.0283,0.0285,0.0253,0.0252,0.0228,0.0192,0.017,0.0186,0.0131,0.0129,0.0118,0.0115,0.0162,0.0119,0.0119,0.0118,0.0118,0,0.0252,0.0269,0.0298,0.0326,0.0331,0.0344,0.0365,0.0375,0.0374,0.0373,0.0361,0.034,0.0314,0.0285,0.0223,0.0236,0.019,0.0155,0.0152,0.013,0.011,0.0113,0.0114,0.0114,0.0114,0.0115,0.0115,0,0.0268,0.0296,0.0324,0.0332,0.0356,0.0371,0.0387,0.0396,0.0417,0.0415,0.0424,0.0387,0.0377,0.0313,0.0236,0.0232,0.0163,0.0148,0.0089,0.0087,0.0103,0.0103,0.0101,0.0102,0.0102,0.0102,0.0102,0,0.0286,0.031,0.0338,0.0354,0.0395,0.0402,0.0446,0.0453,0.0474,0.0503,0.0462,0.0468,0.0384,0.0331,0.0252,0.0165,0.0175,0.0093,0.0077,0.0113,0.0115,0.0101,0.0102,0.01,0.01,0.0101,0.0101,0,0.0298,0.0314,0.0354,0.039,0.0405,0.0437,0.0492,0.0525,0.0535,0.057,0.0571,0.0535,0.0467,0.037,0.0269,0.0197,0.0108,0.0073,0.0121,0.0107,0.0039,0.0041,0.0007,0.0006,0.0005,0.0004,0.0004,0,0.0307,0.0328,0.0383,0.0414,0.0433,0.0485,0.0524,0.0555,0.0592,0.0609,0.0626,0.0575,0.0533,0.0382,0.0275,0.0122,0.0095,0.0045,0.0037,0.0042,0.0029,0.0033,0.0036,0.0003,0.0002,0.0002,0.0002,0,0.0324,0.0346,0.038,0.0444,0.0492,0.055,0.0605,0.0635,0.0671,0.0679,0.067,0.0589,0.0512,0.0388,0.0268,0.0157,0.0076,0.0037,0.0038,0.0029,0.0037,0.0026,0.003,-0.0,-0.0,0.0,0.0,0,0.034,0.0367,0.0415,0.0472,0.0534,0.0594,0.0624,0.0664,0.0697,0.0708,0.0705,0.0615,0.057,0.0406,0.0297,0.0185,0.0151,0.0105,0.0101,0.0102,0.0136,0.0161,0.0149,0,0,0,0,0,0.0355,0.0386,0.0439,0.0501,0.0564,0.0602,0.0669,0.0695,0.0725,0.0722,0.0715,0.0638,0.048,0.0419,0.0304,0.0274,0.0126,0.0133,0.0069,-0.0014,-0.0011,0.001,0,0,0,0,0,0,0.0364,0.0413,0.0438,0.0514,0.0559,0.0631,0.0676,0.0698,0.0698,0.0707,0.063,0.0595,0.0447,0.0543,0.0296,0.0264,0.0203,0.0064,0.0061,-0.0016,-0.0013,-0.0011,0.0012,0,0,0,0,0]}]]